Location: *
(13.1000°N, 59.6167°W)
Time: 20:45:49
(UTC+00:00)

Daily predictions for brighter satellites

Satellite Brightness Start Highest point End
(mag) Time Altitude Azimuth Time Altitude Azimuth Time Altitude Azimuth
Ariane H10+ 4.5 21:59:43 10° SW 22:04:38 41° SSE 22:26:17 10° E
ATLAS 5 CENTAUR R/B 3.0 22:23:44 10° W 22:28:31 60° SSW 22:48:12 10° ESE
CSL-04 Debris 4.3 22:41:41 10° SSE 22:47:11 89° ENE 22:52:41 10° NNW
DELTA 2 R/B (1) 4.2 22:42:54 10° WSW 22:48:26 64° NW 22:53:59 10° NE
Cosmos 1697 Rocket 3.9 22:43:46 10° SSW 22:49:08 48° WNW 22:54:31 10° N
Cosmos-2242 3.2 22:47:07 10° N 22:51:15 51° E 22:55:24 10° SSE
Cosmos 2084 4.4 22:47:33 10° SW 22:52:05 58° WNW 22:56:35 10° NNE
Meteor 2-1 Rocket 4.3 22:47:45 10° N 22:53:34 77° E 22:59:18 10° S
Envisat 3.5 22:48:59 10° S 22:54:01 66° WSW 22:59:03 10° NNW
Cosmos 1980 Rocket 2.2 22:49:49 10° SSW 22:55:28 88° ESE 23:01:05 10° NNE
Cosmos 1300 2.9 22:53:21 10° N 22:57:08 75° W 23:00:56 10° S
Cosmos 1459 Rocket 4.2 22:52:45 10° S 22:58:53 77° W 23:05:07 10° N
GPS 2-18 Rocket1 3.6 22:56:55 10° SW 23:00:38 41° SSE 23:04:18 10° E
FREGAT/IRIS 4.3 22:59:04 10° ESE 23:00:50 15° ENE 23:02:37 10° NE
Orbus 7S 3.2 22:56:27 10° WSW 23:01:44 76° NNW 23:04:19 10° ENE
YAOGAN 6 3.1 22:59:58 10° S 23:03:36 63° W 23:07:11 10° NNW
Cosmos 1328 3.8 23:00:02 10° S 23:04:04 90° NNW 23:08:05 10° N
BREEZE-M DEB (TANK) 1.9 23:02:50 10° SSW 23:05:05 42° SE 23:07:39 10° NE
Cosmos 1455 3.5 23:10:12 10° NE 23:13:02 20° E 23:14:36 16° ESE
ISS -2.2 23:12:18 10° WSW 23:15:27 39° NW 23:18:36 10° NNE
H-2A R/B (2) 4.4 14:04:27 10° WSW 23:16:32 70° SW 23:23:11 14° SE
CZ-2D R/B 3.2 23:14:13 10° S 23:18:03 90° W 23:21:55 10° N
H-2A R/B 4.0 23:17:46 12° E 23:19:04 13° ENE 23:21:19 10° NE
Cosmos 2322 Rocket 3.0 23:15:48 10° SSE 23:20:37 29° ESE 23:25:27 10° NE
SWIFT 3.3 23:17:38 10° SW 23:21:19 28° SSE 23:23:11 20° ESE
Sylda 4400 4.2 23:21:39 10° SW 23:23:31 19° S 23:24:11 18° SSE
Cosmos 1356 4.3 23:20:23 10° NNW 23:23:44 50° W 23:27:04 10° S
SL-16 R/B 2.6 23:20:40 10° S 23:25:54 39° ESE 23:31:06 10° NE
HJ-1C 3.3 23:22:56 11° SSE 23:26:12 78° E 23:29:34 10° N
CZ-3B R/B 3.5 23:25:15 10° NW 23:26:23 11° NNW 23:27:20 10° NNW
Cosmos 2227 Rocket 2.3 23:21:25 10° N 23:26:59 60° ENE 23:31:34 15° SSE
Cosmos 1939 Rocket 2.9 23:25:23 10° S 23:29:22 82° WSW 23:33:26 10° NNW
Cosmos 1271 Rocket 2.8 23:27:01 10° S 23:30:43 51° E 23:34:27 10° NNE
ARIANE 5 R/B 4.2 23:27:18 10° WSW 23:34:00 17° SSW 23:36:42 11° S
ARIANE 5 DEB (SYLDA) 4.3 23:31:49 10° SW 23:34:46 24° SSE 23:36:42 21° SE
Ariane Rocket 3.7 23:30:33 10° S 23:35:31 54° WSW 23:40:28 10° NNW
Cosmos 2058 3.8 23:35:15 28° ESE 23:35:50 29° E 23:39:28 10° NNE
Cosmos 2219 4.2 23:34:16 10° NNW 23:39:43 45° WSW 23:45:08 10° S
ARGOS 4.4 23:39:39 21° E 23:40:23 21° ENE 23:44:21 10° NNE
Cosmos 2251 Rocket 3.4 23:36:59 10° S 23:42:12 67° ESE 23:47:24 10° NNE
Cosmos 1725 Rocket 4.5 23:36:24 10° SSW 23:42:33 63° W 23:48:45 10° N
Cosmos 1452 Rocket 4.1 23:40:15 10° NNW 23:45:22 56° WSW 23:50:29 10° S
NATO 3D Rocket 3.8 23:41:41 10° W 23:46:24 54° SSW 23:48:53 30° SE
Cosmos 2297 Rocket 2.3 23:43:53 10° NNW 23:49:31 74° WSW 23:53:49 18° S
GPS 2-12 Rocket1 3.8 23:46:34 10° WNW 23:50:46 42° N 23:52:35 27° ENE
MOS 1 4.4 23:45:51 10° S 23:51:27 75° WSW 23:57:04 10° NNW
IUS-13 SRM-1 2.7 23:49:48 10° SW 23:50:48 29° SW 23:50:48 29° SW
Shenzhou-11 Module 3.8 23:50:33 10° W 23:52:44 21° SW 23:52:55 20° SW
